Regional Weather Roundup
Issued by NWS

Home | Current Version | Previous Version | Graphics & Text | Print | Product List | Glossary On
Versions: 1 2 3 4 5 6 7 8 9 10 11 12 13 14 15 16 17 18 19 20 21 22 23 24 25 26 27 28 29 30 31 32 33 34 35 36 37 38 39 40 41 42 43 44 45 46 47 48 49 50
000
ASUS43 KLOT 232306
RWRIL

ILLINOIS REGIONAL WEATHER ROUNDUP
NATIONAL WEATHER SERVICE CHICAGO/ROMEOVILLE IL
600 PM CDT WED APR 23 2014

NOTE: "FAIR" INDICATES FEW OR NO CLOUDS BELOW 12,000 FEET WITH NO
SIGNIFICANT WEATHER AND/OR OBSTRUCTIONS TO VISIBILITY.

* THESE STATIONS ARE NOT UNDER NWS QUALITY CONTROL. THEY ALSO MAY NOT
  REPORT WEATHER SUCH AS PRECIPITATION OR FOG.

ILZ001-002-007-009-015-016-024-240000-
NORTHWEST ILLINOIS

CITY           SKY/WX    TMP DP  RH WIND       PRES   REMARKS
MOLINE         LGT RAIN  50  39  66 E10       30.01F
STERLING*      CLOUDY    55  30  38 SE9       30.07S
SAVANNA*       CLOUDY    55  29  37 E7        30.05F
$$

ILZ003-004-008-010-011-017-018-240000-
NORTH CENTRAL ILLINOIS

CITY           SKY/WX    TMP DP  RH WIND       PRES   REMARKS
ROCKFORD       CLOUDY    54  26  34 E8        30.10F
FREEPORT*      CLOUDY    52  24  33 SE9       30.09F
ROCHELLE*      CLOUDY    55  25  31 E10       30.08F
DE KALB*       CLOUDY    51  25  36 E9        30.10F
PERU*          CLOUDY    57  30  36 CALM      30.07F
$$

ILZ005-006-012>014-019>023-240000-
NORTHEAST ILLINOIS

CITY           SKY/WX    TMP DP  RH WIND       PRES   REMARKS
CHICAGO-OHARE  CLOUDY    46  20  35 NE6       30.12S
CHICAGO-MIDWAY CLOUDY    47  25  42 NE7       30.12F
AURORA         CLOUDY    53  26  35 NE10      30.10F
LANSING*       MOSUNNY   44  27  52 NE7       30.12F
JOLIET*        CLOUDY    50  26  38 E6        30.12S
WAUKEGAN       CLOUDY    41  20  43 NE8       30.13S
DUPAGE AIRPORT CLOUDY    49  25  39 NE8       30.11S
KANKAKEE*      PTSUNNY   52  33  47 N9        30.10S
WHEELING       CLOUDY    44  22  41 NE8       30.14F
MORRIS*        CLOUDY    55  20  25 E9        30.09F
NORTHERLY ISL    N/A     40  28  63 N12         N/A
$$

LMZ740>746-240000-
SOUTHERN LAKE MICHIGAN

STATION/POSITION SKY/WX   TEMP    WIND        PRES    VSBY  WAVE
                          AIR SEA DIR/SP/G                  HT/PER
                          (F)     (DEG/KT/KT) (MB)    (MI)  (FT/S)
WAUKEGAN HARBOR            39      30/  9/ 10 1021.7S
HARRISON CRIB              38      10/  9/ 11   N/A
BURNHAM HARBOR             41      10/  8/ 12   N/A
CALUMET HARBOR             40      10/ 10/ 12 1021.0F
MICHIGAN CITY              38      10/ 10/ 13   N/A
$$

ILZ025>027-034>036-040-047-049-050-058-095>099-240000-
WEST-CENTRAL ILLINOIS

CITY           SKY/WX    TMP DP  RH WIND       PRES   REMARKS
QUINCY         CLOUDY    60  33  36 SE15      29.98F
GALESBURG*     LGT RAIN  49  40  71 E7        30.02S
MACOMB*        CLOUDY    54  37  53 SE10      30.03F
JACKSONVILLE*  CLOUDY    61  29  29 E13       30.02S
PITTSFIELD*    CLOUDY    60  34  38 E8        30.01F
$$

ILZ028>032-037-038-041>044-048-051>054-059>061-240000-
CENTRAL ILLINOIS

CITY           SKY/WX    TMP DP  RH WIND       PRES   REMARKS
PONTIAC        CLOUDY    59  28  31 E8        30.07F
BLOOMINGTON    CLOUDY    57  25  29 SE6       30.07F
DECATUR        CLOUDY    61  25  25 E6        30.06R
PEORIA         LGT RAIN  58  36  43 SE6       30.06F
LACON*         CLOUDY    57  29  33 E7        30.06F
LINCOLN*       CLOUDY    62  27  26 E7        30.04F
SPRINGFIELD    CLOUDY    62  26  25 E10       30.03F
TAYLORVILLE    CLOUDY    59  28  31 E6        30.04F
$$

ILZ033-039-045-046-055>057-062-063-240000-
EAST-CENTRAL ILLINOIS

CITY           SKY/WX    TMP DP  RH WIND       PRES   REMARKS
CHAMPAIGN      MOSUNNY   60  27  28 E7        30.06S
RANTOUL*       MOSUNNY   62  23  22 CALM      30.08R
MATTOON        CLOUDY    59  28  30 E7        30.04S
PARIS*         MOSUNNY   61  30  31 NE5       30.06S
$$

ILZ079-100>102-240000-
SOUTHWEST ILLINOIS

CITY           SKY/WX    TMP DP  RH WIND       PRES   REMARKS
ALTON          CLOUDY    61  28  29 E9        30.01F
BELLEVILLE     CLOUDY    62  36  38 E8        30.00F
CAHOKIA*       CLOUDY    62  38  40 E8        29.99F
SPARTA*        MOSUNNY   63  37  39 E8        30.01F
$$

ILZ064>066-069>071-074>076-080>082-084>086-088>090-092>094-240000-
SOUTH-CENTRAL ILLINOIS

CITY           SKY/WX    TMP DP  RH WIND       PRES   REMARKS
CARBONDALE     SUNNY     65  38  36 E9        30.00F
CAIRO*         SUNNY     72  34  25 E9        29.99F
MT. VERNON     SUNNY     63  34  34 E8        30.04R
CENTRALIA*     MOSUNNY   63  31  30 NE7       30.03R
SALEM*         MOSUNNY   64  31  30 NE7       30.03S
METROPOLIS*    SUNNY     68  25  20 NE5       29.99S
$$

ILZ067-068-072-073-078-083-087-091-240000-
SOUTHEAST ILLINOIS

CITY           SKY/WX    TMP DP  RH WIND       PRES   REMARKS
FLORA*         SUNNY     62  31  32 E6        30.04S
FAIRFIELD*     SUNNY     63  36  36 NE8       30.03S
HARRISBURG*    SUNNY     64  31  28 E5        30.03S
ROBINSON*      MOSUNNY   63  35  35 E5        30.06S
CARMI*         SUNNY     65  34  31 NE7       30.03S
$$

ABBREVIATIONS USED IN REMARKS
   TC - TEMPERATURE IN CELSIUS
  WCI - WIND CHILL INDEX
   HX - HEAT INDEX
  VSB - VISIBILITY
$$




USA.gov is the U.S. government's official web portal to all federal, state and local government web resources and services.